ASY52 VAPO-OMDB

Flight info

Callsign ASY52
Flight time 3h 32m
Altitude 28000
Route DOGAP2A DOGAP DCT VAXIM L301 RAGMA N571 VUSET A454 PASOV M564 PUXIL P574 IMPED
Aircraft C30J/M-SDE2E3FGRY/H

Departure

Time 2026-04-20 14:30
Airport Pune International Airport (VAPO)

Arrival

Time 2026-04-20 18:02
Airport Dubai International Airport (OMDB)
Time Latitude Longitude Altitude Speed Heading
2026-04-20 14:08 18.58036 73.92003 1948 ft 0 kts 79°
2026-04-20 14:25 18.58036 73.92007 1948 ft 7 kts 79°
2026-04-20 14:26 18.58053 73.92080 1948 ft 10 kts 77°
2026-04-20 14:26 18.58073 73.92132 1948 ft 7 kts 16°
2026-04-20 14:26 18.58101 73.92116 1948 ft 4 kts 314°
2026-04-20 14:26 18.58118 73.92097 1948 ft 0 kts 313°
2026-04-20 14:28 18.58119 73.92096 1948 ft 1 kts 313°
2026-04-20 14:28 18.58128 73.92087 1948 ft 0 kts 314°
2026-04-20 14:28 18.58159 73.92052 1948 ft 13 kts 313°
2026-04-20 14:28 18.58212 73.91992 1947 ft 8 kts 311°
2026-04-20 14:29 18.58224 73.91969 1947 ft 0 kts 277°
2026-04-20 14:29 18.58226 73.91928 1947 ft 32 kts 274°
2026-04-20 14:29 18.58263 73.91390 1945 ft 112 kts 273°
2026-04-20 14:29 18.58316 73.90384 2116 ft 149 kts 273°
2026-04-20 14:30 18.58359 73.89262 2481 ft 164 kts 274°
2026-04-20 14:30 18.58424 73.88060 3031 ft 165 kts 275°
2026-04-20 14:30 18.58516 73.86778 3389 ft 185 kts 276°
2026-04-20 14:30 18.58623 73.85376 3843 ft 196 kts 276°
2026-04-20 14:31 18.58732 73.83925 4396 ft 201 kts 278°
2026-04-20 14:31 18.59191 73.82547 4978 ft 204 kts 308°
2026-04-20 14:31 18.60235 73.81552 5672 ft 203 kts 327°
2026-04-20 14:31 18.61426 73.80750 6386 ft 203 kts 329°
2026-04-20 14:32 18.62676 73.79934 6778 ft 221 kts 324°
2026-04-20 14:32 18.63774 73.78727 7128 ft 236 kts 304°
2026-04-20 14:32 18.64614 73.77200 7600 ft 244 kts 299°
2026-04-20 14:32 18.65408 73.75610 8119 ft 247 kts 298°
2026-04-20 14:33 18.66193 73.74025 8622 ft 250 kts 298°
2026-04-20 14:33 18.67001 73.72397 9125 ft 252 kts 298°
2026-04-20 14:33 18.67782 73.70730 9616 ft 254 kts 296°
2026-04-20 14:33 18.68543 73.69039 10110 ft 256 kts 296°
2026-04-20 14:34 18.69304 73.67345 10608 ft 257 kts 295°
2026-04-20 14:34 18.70081 73.65622 10957 ft 265 kts 295°
2026-04-20 14:34 18.70893 73.63826 11138 ft 276 kts 295°
2026-04-20 14:34 18.71729 73.61980 11406 ft 282 kts 295°
2026-04-20 14:35 18.72579 73.60104 11739 ft 285 kts 295°
2026-04-20 14:35 18.73438 73.58206 12093 ft 286 kts 295°
2026-04-20 14:35 18.74298 73.56308 12411 ft 287 kts 295°
2026-04-20 14:35 18.75160 73.54401 12748 ft 288 kts 295°
2026-04-20 14:36 18.76023 73.52489 13067 ft 290 kts 295°
2026-04-20 14:36 18.76894 73.50563 13383 ft 291 kts 294°
2026-04-20 14:36 18.77772 73.48622 13686 ft 293 kts 294°
2026-04-20 14:36 18.78649 73.46682 13984 ft 294 kts 294°
2026-04-20 14:37 18.79531 73.44729 14291 ft 295 kts 294°
2026-04-20 14:37 18.80416 73.42770 14573 ft 296 kts 294°
2026-04-20 14:37 18.81285 73.40803 14918 ft 293 kts 292°
2026-04-20 14:37 18.82095 73.38846 15346 ft 289 kts 292°
2026-04-20 14:38 18.82896 73.36899 15703 ft 288 kts 292°
2026-04-20 14:38 18.83690 73.34975 16013 ft 289 kts 292°
2026-04-20 14:38 18.84491 73.33035 16282 ft 290 kts 292°
2026-04-20 14:38 18.85300 73.31083 16557 ft 291 kts 292°
2026-04-20 14:39 18.86110 73.29129 16794 ft 292 kts 292°
2026-04-20 14:39 18.86927 73.27163 17042 ft 293 kts 292°
2026-04-20 14:39 18.87747 73.25186 17291 ft 294 kts 292°
2026-04-20 14:39 18.88565 73.23211 17532 ft 294 kts 292°
2026-04-20 14:40 18.89387 73.21225 17745 ft 295 kts 292°
2026-04-20 14:40 18.90208 73.19240 17944 ft 296 kts 292°
2026-04-20 14:40 18.91036 73.17239 18150 ft 297 kts 292°
2026-04-20 14:40 18.91864 73.15239 18357 ft 298 kts 292°
2026-04-20 14:41 18.92693 73.13234 18561 ft 299 kts 292°
2026-04-20 14:41 18.93525 73.11221 18749 ft 300 kts 292°
2026-04-20 14:41 18.94360 73.09202 18937 ft 300 kts 291°
2026-04-20 14:41 18.95196 73.07178 19117 ft 301 kts 291°
2026-04-20 14:42 18.96033 73.05150 19287 ft 302 kts 291°
2026-04-20 14:42 18.96871 73.03119 19453 ft 302 kts 291°
2026-04-20 14:42 18.97712 73.01080 19625 ft 303 kts 291°
2026-04-20 14:42 18.98556 72.99033 19777 ft 303 kts 291°
2026-04-20 14:43 18.99388 72.97015 19922 ft 304 kts 291°
2026-04-20 14:43 19.00236 72.94960 20076 ft 305 kts 291°
2026-04-20 14:43 19.01080 72.92910 20235 ft 305 kts 291°
2026-04-20 14:43 19.01927 72.90851 20366 ft 306 kts 291°
2026-04-20 14:44 19.02776 72.88790 20503 ft 306 kts 291°
2026-04-20 14:44 19.03628 72.86717 20632 ft 307 kts 291°
2026-04-20 14:44 19.04480 72.84647 20754 ft 307 kts 291°
2026-04-20 14:44 19.05333 72.82572 20867 ft 308 kts 291°
2026-04-20 14:45 19.06189 72.80490 20970 ft 309 kts 291°
2026-04-20 14:45 19.07039 72.78418 21072 ft 310 kts 291°
2026-04-20 14:45 19.07897 72.76333 21197 ft 309 kts 291°
2026-04-20 14:45 19.08741 72.74275 21302 ft 310 kts 291°
2026-04-20 14:46 19.09595 72.72195 21391 ft 310 kts 291°
2026-04-20 14:46 19.10453 72.70102 21480 ft 311 kts 291°
2026-04-20 14:46 19.11314 72.68001 21582 ft 311 kts 291°
2026-04-20 14:46 19.12174 72.65903 21674 ft 311 kts 291°
2026-04-20 14:47 19.13035 72.63801 21757 ft 311 kts 291°
2026-04-20 14:47 19.13895 72.61701 21821 ft 312 kts 291°
2026-04-20 14:47 19.14758 72.59592 21893 ft 312 kts 291°
2026-04-20 14:48 19.16488 72.55365 22040 ft 313 kts 291°
2026-04-20 14:48 19.17354 72.53247 22107 ft 313 kts 291°
2026-04-20 14:48 19.18220 72.51127 22173 ft 314 kts 291°
2026-04-20 14:48 19.19074 72.49036 22242 ft 314 kts 291°
2026-04-20 14:49 19.19950 72.46891 22305 ft 314 kts 291°
2026-04-20 14:49 19.20805 72.44796 22364 ft 314 kts 291°
2026-04-20 14:49 19.21673 72.42671 22425 ft 315 kts 291°
2026-04-20 14:49 19.22552 72.40517 22473 ft 315 kts 291°
2026-04-20 14:50 19.23407 72.38419 22533 ft 315 kts 291°
2026-04-20 14:50 19.24278 72.36280 22591 ft 315 kts 291°
2026-04-20 14:50 19.25148 72.34146 22647 ft 316 kts 291°
2026-04-20 14:50 19.26018 72.32009 22697 ft 316 kts 291°
2026-04-20 14:51 19.26887 72.29874 22738 ft 316 kts 291°
2026-04-20 14:51 19.27758 72.27734 22789 ft 316 kts 291°
2026-04-20 14:51 19.28628 72.25595 22845 ft 316 kts 291°
2026-04-20 14:51 19.29497 72.23457 22884 ft 317 kts 291°
2026-04-20 14:52 19.30372 72.21305 22933 ft 317 kts 291°
2026-04-20 14:52 19.31243 72.19161 22973 ft 317 kts 291°
2026-04-20 14:52 19.32114 72.17016 23004 ft 317 kts 291°
2026-04-20 14:52 19.32985 72.14870 23047 ft 317 kts 291°
2026-04-20 14:53 19.33846 72.12749 23082 ft 318 kts 291°
2026-04-20 14:53 19.34720 72.10597 23113 ft 318 kts 291°
2026-04-20 14:53 19.35591 72.08447 23146 ft 318 kts 291°
2026-04-20 14:53 19.36476 72.06263 23183 ft 318 kts 291°
2026-04-20 14:54 19.37335 72.04143 23217 ft 318 kts 291°
2026-04-20 14:54 19.38210 72.01982 23249 ft 318 kts 291°
2026-04-20 14:54 19.39082 71.99828 23274 ft 319 kts 291°
2026-04-20 14:54 19.39955 71.97672 23310 ft 319 kts 291°
2026-04-20 14:55 19.40829 71.95510 23337 ft 319 kts 291°
2026-04-20 14:55 19.41702 71.93352 23363 ft 319 kts 291°
2026-04-20 14:55 19.42577 71.91186 23400 ft 319 kts 291°
2026-04-20 14:55 19.43451 71.89023 23424 ft 319 kts 291°
2026-04-20 14:56 19.44292 71.86939 23469 ft 319 kts 291°
2026-04-20 14:56 19.45157 71.84796 23490 ft 319 kts 291°
2026-04-20 14:56 19.46030 71.82632 23507 ft 319 kts 291°
2026-04-20 14:56 19.46901 71.80472 23521 ft 319 kts 291°
2026-04-20 14:57 19.47773 71.78309 23532 ft 319 kts 291°
2026-04-20 14:57 19.48647 71.76141 23632 ft 317 kts 291°
2026-04-20 14:57 19.49505 71.74013 23782 ft 314 kts 291°
2026-04-20 14:57 19.50362 71.71884 23819 ft 314 kts 291°
2026-04-20 14:58 19.51210 71.69776 23819 ft 316 kts 291°
2026-04-20 14:58 19.52074 71.67629 23813 ft 317 kts 291°
2026-04-20 14:58 19.52941 71.65475 23815 ft 318 kts 291°
2026-04-20 14:58 19.53809 71.63313 23816 ft 319 kts 291°
2026-04-20 14:59 19.54680 71.61147 23813 ft 320 kts 291°
2026-04-20 14:59 19.55553 71.58975 23817 ft 320 kts 291°
2026-04-20 14:59 19.56425 71.56802 23824 ft 321 kts 291°
2026-04-20 14:59 19.57299 71.54624 23824 ft 321 kts 291°
2026-04-20 15:00 19.58175 71.52441 23823 ft 322 kts 291°
2026-04-20 15:00 19.59052 71.50255 23824 ft 322 kts 291°
2026-04-20 15:00 19.59929 71.48066 23824 ft 323 kts 291°
2026-04-20 15:00 19.60803 71.45886 23827 ft 323 kts 291°
2026-04-20 15:01 19.61682 71.43691 23825 ft 323 kts 291°
2026-04-20 15:01 19.62561 71.41495 23827 ft 324 kts 291°
2026-04-20 15:01 19.63440 71.39299 23826 ft 324 kts 291°
2026-04-20 15:01 19.64322 71.37096 23824 ft 324 kts 291°
2026-04-20 15:02 19.65201 71.34898 23824 ft 324 kts 291°
2026-04-20 15:02 19.66083 71.32690 23822 ft 324 kts 291°
2026-04-20 15:02 19.66950 71.30519 23824 ft 324 kts 291°
2026-04-20 15:02 19.67831 71.28313 23824 ft 324 kts 291°
2026-04-20 15:03 19.68711 71.26110 23831 ft 324 kts 291°
2026-04-20 15:03 19.69589 71.23911 23835 ft 324 kts 291°
2026-04-20 15:03 19.70468 71.21705 23834 ft 324 kts 291°
2026-04-20 15:03 19.71348 71.19498 23834 ft 324 kts 291°
2026-04-20 15:04 19.72225 71.17298 23832 ft 322 kts 291°
2026-04-20 15:04 19.73094 71.15117 23833 ft 321 kts 291°
2026-04-20 15:04 19.73965 71.12929 23834 ft 322 kts 291°
2026-04-20 15:04 19.74838 71.10738 23835 ft 322 kts 291°
2026-04-20 15:05 19.75710 71.08545 23834 ft 322 kts 291°
2026-04-20 15:05 19.76581 71.06356 23833 ft 322 kts 291°
2026-04-20 15:05 19.77452 71.04165 23834 ft 322 kts 291°
2026-04-20 15:05 19.78319 71.01983 23834 ft 322 kts 291°
2026-04-20 15:06 19.79190 70.99790 23833 ft 322 kts 291°
2026-04-20 15:06 19.80063 70.97593 23834 ft 322 kts 291°
2026-04-20 15:06 19.80931 70.95403 23834 ft 322 kts 291°
2026-04-20 15:06 19.81801 70.93211 23833 ft 322 kts 291°
2026-04-20 15:07 19.82666 70.91030 23835 ft 322 kts 291°
2026-04-20 15:07 19.83241 70.89578 23841 ft 322 kts 290°
2026-04-20 15:07 19.84110 70.87385 23843 ft 322 kts 291°
2026-04-20 15:07 19.84979 70.85191 23843 ft 322 kts 290°
2026-04-20 15:08 19.86130 70.82285 23843 ft 322 kts 290°
2026-04-20 15:08 19.86999 70.80088 23844 ft 322 kts 290°
2026-04-20 15:08 19.87866 70.77898 23844 ft 322 kts 290°
2026-04-20 15:08 19.88451 70.76417 23843 ft 322 kts 290°
2026-04-20 15:09 19.89315 70.74231 23843 ft 322 kts 291°
2026-04-20 15:09 19.90183 70.72036 23844 ft 322 kts 291°
2026-04-20 15:09 19.91040 70.69864 23843 ft 323 kts 291°
2026-04-20 15:09 19.91908 70.67667 23843 ft 323 kts 291°
2026-04-20 15:10 19.92776 70.65469 23844 ft 322 kts 291°
2026-04-20 15:10 19.93642 70.63272 23843 ft 322 kts 291°
2026-04-20 15:10 19.94508 70.61075 23843 ft 322 kts 291°
2026-04-20 15:10 19.95375 70.58874 23843 ft 322 kts 291°
2026-04-20 15:11 19.96232 70.56701 23844 ft 322 kts 291°
2026-04-20 15:11 19.97098 70.54500 23844 ft 322 kts 291°
2026-04-20 15:11 19.97962 70.52304 23843 ft 322 kts 291°
2026-04-20 15:11 19.98826 70.50107 23843 ft 322 kts 291°
2026-04-20 15:12 19.99693 70.47903 23842 ft 322 kts 291°
2026-04-20 15:12 20.00558 70.45704 23843 ft 322 kts 291°
2026-04-20 15:12 20.01421 70.43506 23843 ft 322 kts 291°
2026-04-20 15:12 20.02283 70.41314 23844 ft 322 kts 291°
2026-04-20 15:13 20.03146 70.39116 23842 ft 322 kts 291°
2026-04-20 15:13 20.04009 70.36916 23842 ft 322 kts 291°
2026-04-20 15:13 20.04871 70.34716 23842 ft 322 kts 291°
2026-04-20 15:13 20.05734 70.32517 23844 ft 322 kts 291°
2026-04-20 15:14 20.06595 70.30320 23844 ft 322 kts 291°
2026-04-20 15:14 20.07457 70.28118 23843 ft 322 kts 290°
2026-04-20 15:14 20.08319 70.25918 23843 ft 322 kts 290°
2026-04-20 15:14 20.09181 70.23717 23844 ft 322 kts 291°
2026-04-20 15:15 20.10041 70.21518 23844 ft 322 kts 290°
2026-04-20 15:15 20.10902 70.19317 23844 ft 322 kts 290°
2026-04-20 15:15 20.11763 70.17113 23843 ft 322 kts 290°
2026-04-20 15:15 20.12621 70.14917 23843 ft 322 kts 290°
2026-04-20 15:16 20.13479 70.12720 23844 ft 322 kts 290°
2026-04-20 15:16 20.14339 70.10517 23843 ft 322 kts 290°
2026-04-20 15:16 20.15201 70.08310 23843 ft 322 kts 290°
2026-04-20 15:16 20.16061 70.06107 23842 ft 322 kts 290°
2026-04-20 15:17 20.16916 70.03911 23845 ft 322 kts 290°
2026-04-20 15:17 20.17776 70.01703 23843 ft 322 kts 290°
2026-04-20 15:17 20.18635 69.99498 23844 ft 322 kts 290°
2026-04-20 15:17 20.19493 69.97296 23843 ft 322 kts 290°
2026-04-20 15:18 20.20348 69.95098 23842 ft 322 kts 290°
2026-04-20 15:18 20.21206 69.92894 23843 ft 322 kts 290°
2026-04-20 15:18 20.22064 69.90690 23843 ft 322 kts 290°
2026-04-20 15:18 20.22921 69.88484 23844 ft 322 kts 290°
2026-04-20 15:19 20.23777 69.86280 23843 ft 322 kts 290°
2026-04-20 15:19 20.24631 69.84082 23842 ft 322 kts 290°
2026-04-20 15:19 20.25491 69.81868 23843 ft 323 kts 291°
2026-04-20 15:19 20.26348 69.79660 23842 ft 323 kts 291°
2026-04-20 15:20 20.27203 69.77453 23842 ft 322 kts 291°
2026-04-20 15:20 20.28063 69.75235 23850 ft 323 kts 291°
2026-04-20 15:20 20.28909 69.73052 23854 ft 324 kts 291°
2026-04-20 15:20 20.29758 69.70859 23853 ft 324 kts 291°
2026-04-20 15:21 20.30619 69.68635 23852 ft 325 kts 291°
2026-04-20 15:21 20.31479 69.66413 23852 ft 324 kts 291°
2026-04-20 15:21 20.32337 69.64198 23861 ft 324 kts 291°
2026-04-20 15:21 20.33196 69.61977 23863 ft 324 kts 291°
2026-04-20 15:22 20.34055 69.59754 23862 ft 324 kts 291°
2026-04-20 15:22 20.34914 69.57529 23862 ft 324 kts 291°
2026-04-20 15:22 20.35772 69.55307 23862 ft 324 kts 291°
2026-04-20 15:22 20.36628 69.53091 23870 ft 324 kts 291°
2026-04-20 15:23 20.37484 69.50873 23872 ft 324 kts 291°
2026-04-20 15:23 20.38342 69.48648 23872 ft 325 kts 291°
2026-04-20 15:23 20.39200 69.46421 23871 ft 325 kts 291°
2026-04-20 15:23 20.40058 69.44195 23871 ft 324 kts 291°
2026-04-20 15:24 20.40915 69.41972 23871 ft 324 kts 291°
2026-04-20 15:24 20.41771 69.39746 23871 ft 324 kts 291°
2026-04-20 15:24 20.42626 69.37525 23871 ft 324 kts 291°
2026-04-20 15:24 20.43481 69.35300 23871 ft 324 kts 291°
2026-04-20 15:25 20.44335 69.33080 23871 ft 324 kts 291°
2026-04-20 15:25 20.45188 69.30862 23871 ft 324 kts 291°
2026-04-20 15:25 20.46042 69.28637 23871 ft 324 kts 291°
2026-04-20 15:25 20.46896 69.26413 23872 ft 325 kts 291°
2026-04-20 15:26 20.47745 69.24201 23872 ft 326 kts 291°
2026-04-20 15:26 20.48603 69.21965 23872 ft 327 kts 291°
2026-04-20 15:26 20.49466 69.19713 23872 ft 328 kts 291°
2026-04-20 15:26 20.50331 69.17456 23872 ft 329 kts 291°
2026-04-20 15:27 20.51196 69.15199 23872 ft 329 kts 291°
2026-04-20 15:27 20.52065 69.12928 23872 ft 330 kts 291°
2026-04-20 15:27 20.52932 69.10665 23872 ft 330 kts 291°
2026-04-20 15:27 20.53803 69.08386 23872 ft 331 kts 291°
2026-04-20 15:28 20.54673 69.06111 23872 ft 331 kts 291°
2026-04-20 15:28 20.55545 69.03831 23871 ft 331 kts 291°
2026-04-20 15:28 20.56416 69.01552 23871 ft 332 kts 291°
2026-04-20 15:28 20.57285 68.99276 23871 ft 332 kts 291°
2026-04-20 15:29 20.58159 68.96985 23871 ft 332 kts 291°
2026-04-20 15:29 20.59029 68.94707 23871 ft 332 kts 292°
2026-04-20 15:29 20.59903 68.92415 23871 ft 332 kts 292°
2026-04-20 15:29 20.60772 68.90135 23871 ft 332 kts 292°
2026-04-20 15:30 20.61643 68.87849 23871 ft 332 kts 292°
2026-04-20 15:30 20.62513 68.85563 23871 ft 332 kts 292°
2026-04-20 15:30 20.63383 68.83279 23871 ft 332 kts 292°
2026-04-20 15:30 20.64239 68.81028 23871 ft 331 kts 292°
2026-04-20 15:31 20.65104 68.78754 23871 ft 330 kts 292°
2026-04-20 15:31 20.65969 68.76479 23871 ft 330 kts 292°
2026-04-20 15:31 20.66829 68.74215 23871 ft 329 kts 292°
2026-04-20 15:31 20.67679 68.71975 23871 ft 329 kts 292°
2026-04-20 15:32 20.68538 68.69714 23871 ft 328 kts 292°
2026-04-20 15:32 20.69406 68.67424 23871 ft 328 kts 292°
2026-04-20 15:32 20.70252 68.65195 23871 ft 328 kts 292°
2026-04-20 15:32 20.71108 68.62937 23871 ft 328 kts 292°
2026-04-20 15:33 20.71964 68.60679 23871 ft 328 kts 292°
2026-04-20 15:33 20.72822 68.58412 23871 ft 328 kts 292°
2026-04-20 15:33 20.73677 68.56154 23871 ft 328 kts 292°
2026-04-20 15:33 20.74529 68.53903 23871 ft 328 kts 292°
2026-04-20 15:34 20.75384 68.51642 23871 ft 328 kts 292°
2026-04-20 15:34 20.76241 68.49375 23871 ft 328 kts 292°
2026-04-20 15:34 20.77093 68.47119 23871 ft 328 kts 292°
2026-04-20 15:34 20.77945 68.44865 23871 ft 328 kts 292°
2026-04-20 15:35 20.78799 68.42604 23871 ft 327 kts 292°
2026-04-20 15:35 20.79649 68.40350 23871 ft 327 kts 292°
2026-04-20 15:35 20.80499 68.38094 23871 ft 327 kts 292°
2026-04-20 15:35 20.81349 68.35842 23871 ft 327 kts 292°
2026-04-20 15:36 20.82200 68.33583 23871 ft 327 kts 292°
2026-04-20 15:36 20.83050 68.31325 23871 ft 327 kts 292°
2026-04-20 15:36 20.83910 68.29040 23871 ft 327 kts 292°
2026-04-20 15:36 20.84761 68.26779 23871 ft 327 kts 292°
2026-04-20 15:37 20.85608 68.24526 23871 ft 327 kts 292°
2026-04-20 15:37 20.86459 68.22262 23871 ft 327 kts 292°
2026-04-20 15:37 20.87295 68.20039 23871 ft 327 kts 292°
2026-04-20 15:37 20.88155 68.17749 23871 ft 327 kts 292°
2026-04-20 15:38 20.89003 68.15489 23872 ft 327 kts 292°
2026-04-20 15:38 20.89850 68.13231 23871 ft 327 kts 292°
2026-04-20 15:38 20.90699 68.10969 23871 ft 327 kts 292°
2026-04-20 15:38 20.91544 68.08714 23871 ft 327 kts 292°
2026-04-20 15:39 20.92381 68.06481 23871 ft 327 kts 292°
2026-04-20 15:39 20.93229 68.04219 23871 ft 327 kts 292°
2026-04-20 15:39 20.94074 68.01963 23871 ft 327 kts 292°
2026-04-20 15:39 20.94920 67.99701 23871 ft 327 kts 292°
2026-04-20 15:40 20.95765 67.97441 23871 ft 327 kts 292°
2026-04-20 15:40 20.96610 67.95180 23871 ft 327 kts 292°
2026-04-20 15:40 20.97455 67.92919 23871 ft 327 kts 292°
2026-04-20 15:40 20.98299 67.90660 23871 ft 328 kts 292°
2026-04-20 15:41 20.99137 67.88413 23872 ft 328 kts 292°
2026-04-20 15:41 20.99951 67.86233 23871 ft 328 kts 292°
2026-04-20 15:41 21.00797 67.83965 23871 ft 328 kts 292°
2026-04-20 15:41 21.01640 67.81704 23871 ft 328 kts 292°
2026-04-20 15:42 21.02491 67.79421 23871 ft 328 kts 292°
2026-04-20 15:42 21.03338 67.77151 23871 ft 329 kts 292°
2026-04-20 15:42 21.04182 67.74880 23871 ft 329 kts 292°
2026-04-20 15:42 21.05028 67.72606 23871 ft 329 kts 292°
2026-04-20 15:43 21.05873 67.70332 23871 ft 329 kts 292°
2026-04-20 15:43 21.06719 67.68059 23871 ft 329 kts 292°
2026-04-20 15:43 21.07564 67.65784 23871 ft 329 kts 292°
2026-04-20 15:43 21.08407 67.63512 23871 ft 329 kts 292°
2026-04-20 15:44 21.09243 67.61260 23871 ft 329 kts 292°
2026-04-20 15:44 21.10089 67.58983 23871 ft 329 kts 292°
2026-04-20 15:44 21.10935 67.56700 23872 ft 329 kts 292°
2026-04-20 15:44 21.11780 67.54418 23871 ft 329 kts 292°
2026-04-20 15:45 21.12623 67.52144 23872 ft 329 kts 292°
2026-04-20 15:45 21.13467 67.49867 23871 ft 329 kts 292°
2026-04-20 15:45 21.14311 67.47588 23871 ft 329 kts 292°
2026-04-20 15:45 21.15153 67.45312 23871 ft 329 kts 292°
2026-04-20 15:46 21.15988 67.43054 23871 ft 329 kts 292°
2026-04-20 15:46 21.16831 67.40773 23871 ft 329 kts 292°
2026-04-20 15:46 21.17671 67.38501 23871 ft 329 kts 292°
2026-04-20 15:46 21.18514 67.36216 23871 ft 329 kts 292°
2026-04-20 15:47 21.19355 67.33938 23871 ft 329 kts 292°
2026-04-20 15:47 21.20197 67.31655 23871 ft 329 kts 292°
2026-04-20 15:47 21.20764 67.30117 23871 ft 329 kts 292°
2026-04-20 15:47 21.21606 67.27834 23871 ft 329 kts 292°
2026-04-20 15:48 21.22450 67.25546 23871 ft 329 kts 292°
2026-04-20 15:48 21.23279 67.23295 23871 ft 329 kts 292°
2026-04-20 15:48 21.24120 67.21007 23871 ft 329 kts 292°
2026-04-20 15:48 21.24961 67.18722 23871 ft 330 kts 292°
2026-04-20 15:49 21.25802 67.16434 23871 ft 330 kts 292°
2026-04-20 15:49 21.26644 67.14145 23872 ft 330 kts 293°
2026-04-20 15:49 21.27494 67.11832 23871 ft 330 kts 293°
2026-04-20 15:49 21.28333 67.09544 23870 ft 330 kts 293°
2026-04-20 15:50 21.29173 67.07257 23871 ft 330 kts 293°
2026-04-20 15:50 21.30002 67.04998 23871 ft 330 kts 293°
2026-04-20 15:50 21.30842 67.02707 23871 ft 330 kts 293°
2026-04-20 15:50 21.31682 67.00415 23871 ft 330 kts 293°
2026-04-20 15:51 21.32521 66.98126 23871 ft 330 kts 293°
2026-04-20 15:51 21.33343 66.95881 23871 ft 330 kts 293°
2026-04-20 15:51 21.34181 66.93591 23871 ft 330 kts 293°
2026-04-20 15:51 21.34986 66.91389 23871 ft 330 kts 293°
2026-04-20 15:52 21.35801 66.89161 23871 ft 330 kts 293°
2026-04-20 15:52 21.36640 66.86863 23871 ft 331 kts 293°
2026-04-20 15:52 21.37482 66.84561 23871 ft 331 kts 293°
2026-04-20 15:53 21.39159 66.79967 23871 ft 330 kts 293°
2026-04-20 15:53 21.39997 66.77671 23872 ft 330 kts 293°
2026-04-20 15:53 21.40837 66.75365 23872 ft 331 kts 293°
2026-04-20 15:53 21.41675 66.73067 23872 ft 331 kts 293°
2026-04-20 15:54 21.42513 66.70768 23871 ft 331 kts 293°
2026-04-20 15:54 21.43351 66.68465 23871 ft 331 kts 293°
2026-04-20 15:54 21.44187 66.66168 23871 ft 331 kts 293°
2026-04-20 15:54 21.45024 66.63865 23871 ft 331 kts 293°
2026-04-20 15:55 21.45862 66.61559 23871 ft 331 kts 293°
2026-04-20 15:55 21.46697 66.59261 23871 ft 331 kts 293°
2026-04-20 15:55 21.47531 66.56965 23871 ft 331 kts 293°
2026-04-20 15:55 21.48366 66.54666 23871 ft 331 kts 293°
2026-04-20 15:56 21.49190 66.52391 23871 ft 331 kts 293°
2026-04-20 15:56 21.50028 66.50080 23871 ft 331 kts 293°
2026-04-20 15:56 21.50864 66.47775 23871 ft 331 kts 293°
2026-04-20 15:56 21.51697 66.45474 23871 ft 331 kts 293°
2026-04-20 15:57 21.52521 66.43199 23871 ft 331 kts 293°
2026-04-20 15:57 21.53356 66.40889 23871 ft 331 kts 293°
2026-04-20 15:57 21.54191 66.38581 23871 ft 331 kts 293°
2026-04-20 15:57 21.55025 66.36277 23871 ft 331 kts 293°
2026-04-20 15:58 21.55856 66.33977 23871 ft 331 kts 293°
2026-04-20 15:58 21.56687 66.31675 23871 ft 330 kts 293°
2026-04-20 15:58 21.57516 66.29377 23871 ft 330 kts 293°
2026-04-20 15:58 21.58347 66.27074 23871 ft 330 kts 293°
2026-04-20 15:59 21.59178 66.24770 23871 ft 330 kts 293°
2026-04-20 15:59 21.60008 66.22467 23863 ft 331 kts 293°
2026-04-20 15:59 21.60839 66.20161 23861 ft 331 kts 293°
2026-04-20 15:59 21.61669 66.17857 23869 ft 330 kts 292°
2026-04-20 16:00 21.62496 66.15555 23872 ft 330 kts 292°
2026-04-20 16:00 21.63314 66.13282 23871 ft 330 kts 292°
2026-04-20 16:00 21.64144 66.10973 23871 ft 330 kts 292°
2026-04-20 16:00 21.64972 66.08673 23871 ft 330 kts 292°
2026-04-20 16:01 21.65799 66.06368 23871 ft 330 kts 292°
2026-04-20 16:01 21.66625 66.04067 23871 ft 330 kts 292°
2026-04-20 16:01 21.67450 66.01768 23871 ft 330 kts 292°
2026-04-20 16:01 21.68276 65.99463 23872 ft 331 kts 292°
2026-04-20 16:02 21.69103 65.97157 23871 ft 331 kts 292°
2026-04-20 16:02 21.69913 65.94896 23871 ft 331 kts 292°
2026-04-20 16:02 21.70738 65.92593 23871 ft 330 kts 292°
2026-04-20 16:02 21.71562 65.90290 23871 ft 330 kts 292°
2026-04-20 16:03 21.72387 65.87986 23872 ft 330 kts 292°
2026-04-20 16:03 21.73211 65.85681 23871 ft 330 kts 292°
2026-04-20 16:03 21.74036 65.83372 23871 ft 330 kts 292°
2026-04-20 16:03 21.74860 65.81065 23871 ft 331 kts 292°
2026-04-20 16:04 21.75685 65.78753 23871 ft 331 kts 292°
2026-04-20 16:04 21.76512 65.76438 23871 ft 331 kts 292°
2026-04-20 16:04 21.77335 65.74130 23871 ft 331 kts 292°
2026-04-20 16:04 21.78158 65.71821 23870 ft 331 kts 292°
2026-04-20 16:05 21.78983 65.69505 23871 ft 331 kts 292°
2026-04-20 16:05 21.79806 65.67194 23871 ft 331 kts 292°
2026-04-20 16:05 21.80631 65.64876 23871 ft 331 kts 292°
2026-04-20 16:05 21.81451 65.62573 23871 ft 331 kts 292°
2026-04-20 16:06 21.82275 65.60255 23871 ft 331 kts 292°
2026-04-20 16:06 21.83098 65.57941 23871 ft 331 kts 292°
2026-04-20 16:06 21.83896 65.55692 23871 ft 331 kts 292°
2026-04-20 16:06 21.84719 65.53376 23871 ft 331 kts 292°
2026-04-20 16:07 21.85541 65.51060 23871 ft 331 kts 292°
2026-04-20 16:07 21.86362 65.48743 23871 ft 331 kts 292°
2026-04-20 16:07 21.87184 65.46426 23872 ft 331 kts 292°
2026-04-20 16:07 21.87996 65.44135 23871 ft 331 kts 292°
2026-04-20 16:08 21.88817 65.41816 23871 ft 331 kts 292°
2026-04-20 16:08 21.89634 65.39507 23871 ft 331 kts 292°
2026-04-20 16:08 21.90454 65.37189 23871 ft 331 kts 292°
2026-04-20 16:08 21.91273 65.34872 23871 ft 331 kts 292°
2026-04-20 16:09 21.92093 65.32553 23871 ft 331 kts 292°
2026-04-20 16:09 21.92909 65.30241 23871 ft 331 kts 292°
2026-04-20 16:09 21.93731 65.27916 23871 ft 331 kts 292°
2026-04-20 16:09 21.94548 65.25601 23871 ft 331 kts 292°
2026-04-20 16:10 21.95367 65.23277 23872 ft 331 kts 292°
2026-04-20 16:10 21.96185 65.20958 23871 ft 331 kts 293°
2026-04-20 16:10 21.97002 65.18638 23871 ft 331 kts 293°
2026-04-20 16:10 21.97818 65.16320 23871 ft 331 kts 293°
2026-04-20 16:11 21.98635 65.13999 23871 ft 331 kts 293°
2026-04-20 16:11 21.99452 65.11678 23871 ft 331 kts 292°
2026-04-20 16:11 22.00270 65.09351 23871 ft 331 kts 292°
2026-04-20 16:11 22.01085 65.07030 23871 ft 331 kts 292°
2026-04-20 16:12 22.01898 65.04716 23871 ft 331 kts 292°
2026-04-20 16:12 22.02713 65.02394 23871 ft 331 kts 292°
2026-04-20 16:12 22.03529 65.00070 23871 ft 331 kts 292°
2026-04-20 16:12 22.04327 64.97794 23871 ft 331 kts 292°
2026-04-20 16:13 22.05141 64.95471 23871 ft 331 kts 293°
2026-04-20 16:13 22.05949 64.93166 23871 ft 331 kts 293°
2026-04-20 16:13 22.06767 64.90830 23871 ft 331 kts 293°
2026-04-20 16:13 22.07579 64.88508 23871 ft 331 kts 293°
2026-04-20 16:14 22.08391 64.86189 23871 ft 331 kts 293°
2026-04-20 16:14 22.09203 64.83866 23871 ft 331 kts 293°
2026-04-20 16:14 22.10014 64.81543 23871 ft 331 kts 293°
2026-04-20 16:14 22.10825 64.79221 23871 ft 331 kts 293°
2026-04-20 16:15 22.11635 64.76900 23871 ft 331 kts 293°
2026-04-20 16:15 22.12436 64.74606 23871 ft 331 kts 293°
2026-04-20 16:15 22.13248 64.72277 23871 ft 331 kts 292°
2026-04-20 16:15 22.14057 64.69953 23871 ft 331 kts 292°
2026-04-20 16:16 22.14867 64.67629 23871 ft 331 kts 293°
2026-04-20 16:16 22.15677 64.65302 23871 ft 331 kts 292°
2026-04-20 16:16 22.16487 64.62975 23871 ft 331 kts 292°
2026-04-20 16:16 22.17298 64.60641 23871 ft 331 kts 292°
2026-04-20 16:17 22.18104 64.58324 23871 ft 332 kts 292°
2026-04-20 16:17 22.18913 64.55997 23871 ft 332 kts 292°
2026-04-20 16:17 22.19722 64.53665 23871 ft 332 kts 293°
2026-04-20 16:17 22.20531 64.51335 23871 ft 332 kts 293°
2026-04-20 16:18 22.21339 64.49006 23871 ft 332 kts 293°
2026-04-20 16:18 22.22149 64.46668 23871 ft 332 kts 293°
2026-04-20 16:18 22.22957 64.44337 23871 ft 332 kts 293°
2026-04-20 16:18 22.23766 64.42001 23871 ft 332 kts 293°
2026-04-20 16:19 22.24572 64.39672 23871 ft 331 kts 293°
2026-04-20 16:19 22.25379 64.37340 23876 ft 331 kts 293°
2026-04-20 16:19 22.26185 64.35007 23881 ft 331 kts 293°
2026-04-20 16:19 22.26990 64.32680 23881 ft 331 kts 293°
2026-04-20 16:20 22.27794 64.30351 23880 ft 331 kts 293°
2026-04-20 16:20 22.28601 64.28013 23880 ft 331 kts 293°
2026-04-20 16:20 22.29405 64.25683 23880 ft 331 kts 293°
2026-04-20 16:20 22.30199 64.23379 23881 ft 331 kts 293°
2026-04-20 16:21 22.31013 64.21018 23880 ft 331 kts 293°
2026-04-20 16:21 22.31818 64.18681 23880 ft 332 kts 292°
2026-04-20 16:21 22.32622 64.16345 23881 ft 332 kts 292°
2026-04-20 16:21 22.33425 64.14011 23880 ft 332 kts 292°
2026-04-20 16:22 22.34227 64.11681 23880 ft 332 kts 292°
2026-04-20 16:22 22.35020 64.09371 23881 ft 332 kts 292°
2026-04-20 16:22 22.35832 64.07007 23880 ft 332 kts 292°
2026-04-20 16:22 22.36628 64.04691 23880 ft 332 kts 292°
2026-04-20 16:23 22.37432 64.02349 23880 ft 332 kts 292°
2026-04-20 16:23 22.38144 64.00276 23880 ft 332 kts 292°
2026-04-20 16:23 22.38944 63.97941 23880 ft 332 kts 292°
2026-04-20 16:23 22.39745 63.95602 23880 ft 332 kts 292°
2026-04-20 16:24 22.40547 63.93262 23880 ft 332 kts 292°
2026-04-20 16:24 22.41358 63.90891 23881 ft 332 kts 292°
2026-04-20 16:24 22.42160 63.88548 23881 ft 332 kts 292°
2026-04-20 16:24 22.42960 63.86206 23880 ft 332 kts 292°
2026-04-20 16:25 22.43758 63.83870 23880 ft 332 kts 292°
2026-04-20 16:25 22.44548 63.81559 23864 ft 332 kts 292°
2026-04-20 16:25 22.45346 63.79221 23861 ft 332 kts 292°
2026-04-20 16:25 22.46147 63.76873 23862 ft 332 kts 292°
2026-04-20 16:26 22.46945 63.74531 23862 ft 332 kts 292°
2026-04-20 16:26 22.47746 63.72183 23862 ft 332 kts 292°
2026-04-20 16:26 22.48545 63.69838 23862 ft 332 kts 292°
2026-04-20 16:26 22.49342 63.67497 23862 ft 332 kts 292°
2026-04-20 16:27 22.50142 63.65149 23862 ft 332 kts 292°
2026-04-20 16:27 22.50939 63.62804 23862 ft 332 kts 292°
2026-04-20 16:27 22.51735 63.60463 23862 ft 332 kts 292°
2026-04-20 16:27 22.52531 63.58119 23862 ft 332 kts 292°
2026-04-20 16:28 22.53320 63.55794 23862 ft 332 kts 292°
2026-04-20 16:28 22.54120 63.53438 23862 ft 332 kts 292°
2026-04-20 16:28 22.54915 63.51093 23862 ft 332 kts 292°
2026-04-20 16:28 22.55453 63.49505 23862 ft 332 kts 292°
2026-04-20 16:29 22.56247 63.47161 23862 ft 332 kts 292°
2026-04-20 16:29 22.57043 63.44812 23862 ft 333 kts 292°
2026-04-20 16:29 22.57839 63.42460 23862 ft 333 kts 292°
2026-04-20 16:29 22.58633 63.40112 23862 ft 333 kts 292°
2026-04-20 16:30 22.59427 63.37762 23862 ft 332 kts 292°
2026-04-20 16:30 22.60221 63.35413 23857 ft 333 kts 292°
2026-04-20 16:30 22.61017 63.33058 23852 ft 333 kts 292°
2026-04-20 16:30 22.61809 63.30710 23851 ft 333 kts 292°
2026-04-20 16:31 22.62605 63.28351 23853 ft 333 kts 292°
2026-04-20 16:31 22.63387 63.26031 23853 ft 333 kts 292°
2026-04-20 16:31 22.64180 63.23678 23854 ft 333 kts 292°
2026-04-20 16:31 22.64972 63.21327 23854 ft 333 kts 292°
2026-04-20 16:32 22.65763 63.18977 23853 ft 333 kts 292°
2026-04-20 16:32 22.66554 63.16624 23852 ft 333 kts 292°
2026-04-20 16:32 22.67346 63.14268 23853 ft 333 kts 292°
2026-04-20 16:32 22.68138 63.11914 23853 ft 332 kts 292°
2026-04-20 16:33 22.68940 63.09526 23852 ft 333 kts 292°
2026-04-20 16:33 22.69718 63.07205 23852 ft 333 kts 292°
2026-04-20 16:33 22.70479 63.04936 23853 ft 333 kts 292°
2026-04-20 16:33 22.71268 63.02586 23853 ft 333 kts 292°
2026-04-20 16:34 22.72058 63.00227 23853 ft 333 kts 292°
2026-04-20 16:34 22.72848 62.97870 23854 ft 332 kts 292°
2026-04-20 16:34 22.73636 62.95517 23851 ft 332 kts 292°
2026-04-20 16:34 22.74423 62.93165 23853 ft 333 kts 292°
2026-04-20 16:35 22.75210 62.90809 23854 ft 333 kts 292°
2026-04-20 16:35 22.75992 62.88470 23852 ft 332 kts 292°
2026-04-20 16:35 22.76779 62.86114 23853 ft 332 kts 292°
2026-04-20 16:35 22.77565 62.83758 23852 ft 332 kts 292°
2026-04-20 16:36 22.78362 62.81369 23854 ft 333 kts 292°
2026-04-20 16:36 22.79147 62.79015 23852 ft 333 kts 292°
2026-04-20 16:36 22.79924 62.76682 23852 ft 333 kts 292°
2026-04-20 16:36 22.80709 62.74326 23853 ft 333 kts 292°
2026-04-20 16:37 22.81495 62.71964 23852 ft 333 kts 292°
2026-04-20 16:37 22.82279 62.69607 23854 ft 333 kts 292°
2026-04-20 16:37 22.83075 62.67214 23852 ft 333 kts 292°
2026-04-20 16:37 22.83858 62.64856 23854 ft 333 kts 291°
2026-04-20 16:38 22.84641 62.62500 23854 ft 333 kts 291°
2026-04-20 16:38 22.85423 62.60144 23853 ft 333 kts 291°
2026-04-20 16:38 22.86197 62.57811 23854 ft 333 kts 291°
2026-04-20 16:38 22.86980 62.55449 23852 ft 332 kts 291°
2026-04-20 16:39 22.87745 62.53141 23853 ft 332 kts 291°
2026-04-20 16:39 22.88526 62.50784 23854 ft 333 kts 291°
2026-04-20 16:39 22.89308 62.48421 23851 ft 332 kts 291°
2026-04-20 16:39 22.90089 62.46059 23851 ft 332 kts 291°
2026-04-20 16:40 22.90870 62.43700 23853 ft 333 kts 291°
2026-04-20 16:40 22.91652 62.41332 23853 ft 333 kts 291°
2026-04-20 16:40 22.92432 62.38971 23852 ft 333 kts 291°
2026-04-20 16:40 22.93212 62.36608 23852 ft 333 kts 291°
2026-04-20 16:41 22.93991 62.34246 23851 ft 332 kts 291°
2026-04-20 16:41 22.94770 62.31883 23852 ft 332 kts 291°
2026-04-20 16:41 22.95549 62.29518 23854 ft 332 kts 291°
2026-04-20 16:41 22.96327 62.27157 23853 ft 332 kts 291°
2026-04-20 16:42 22.97102 62.24798 23851 ft 332 kts 291°
2026-04-20 16:42 22.97869 62.22468 23848 ft 332 kts 291°
2026-04-20 16:42 22.98655 62.20078 23842 ft 332 kts 291°
2026-04-20 16:42 22.99424 62.17740 23844 ft 332 kts 291°
2026-04-20 16:43 23.00200 62.15376 23844 ft 332 kts 291°
2026-04-20 16:43 23.00976 62.13011 23844 ft 332 kts 291°
2026-04-20 16:43 23.01751 62.10648 23843 ft 332 kts 291°
2026-04-20 16:43 23.02525 62.08290 23843 ft 332 kts 291°
2026-04-20 16:44 23.03266 62.06029 23845 ft 332 kts 291°
2026-04-20 16:44 23.04039 62.03668 23842 ft 332 kts 291°
2026-04-20 16:44 23.04808 62.01317 23844 ft 333 kts 291°
2026-04-20 16:44 23.05598 61.98902 23842 ft 333 kts 291°
2026-04-20 16:45 23.06369 61.96541 23842 ft 332 kts 291°
2026-04-20 16:45 23.07144 61.94171 23844 ft 332 kts 291°
2026-04-20 16:45 23.07907 61.91833 23844 ft 332 kts 291°
2026-04-20 16:45 23.08678 61.89471 23841 ft 332 kts 291°
2026-04-20 16:46 23.09449 61.87107 23844 ft 332 kts 291°
2026-04-20 16:46 23.10218 61.84747 23842 ft 332 kts 291°
2026-04-20 16:46 23.10988 61.82384 23844 ft 332 kts 291°
2026-04-20 16:46 23.11756 61.80025 23842 ft 331 kts 291°
2026-04-20 16:47 23.12526 61.77661 23845 ft 332 kts 291°
2026-04-20 16:47 23.13294 61.75301 23843 ft 331 kts 291°
2026-04-20 16:47 23.14062 61.72938 23843 ft 331 kts 291°
2026-04-20 16:47 23.14829 61.70576 23843 ft 331 kts 291°
2026-04-20 16:48 23.15594 61.68216 23844 ft 331 kts 290°
2026-04-20 16:48 23.16360 61.65856 23844 ft 331 kts 291°
2026-04-20 16:48 23.17128 61.63489 23844 ft 331 kts 290°
2026-04-20 16:48 23.17894 61.61126 23844 ft 331 kts 290°
2026-04-20 16:49 23.18657 61.58768 23843 ft 331 kts 290°
2026-04-20 16:49 23.19423 61.56403 23844 ft 331 kts 290°
2026-04-20 16:49 23.20188 61.54040 23844 ft 331 kts 290°
2026-04-20 16:49 23.20951 61.51679 23844 ft 331 kts 290°
2026-04-20 16:50 23.21714 61.49317 23844 ft 331 kts 290°
2026-04-20 16:50 23.22473 61.46968 23843 ft 331 kts 290°
2026-04-20 16:50 23.23229 61.44628 23843 ft 331 kts 290°
2026-04-20 16:50 23.23990 61.42268 23844 ft 331 kts 290°
2026-04-20 16:51 23.24751 61.39906 23843 ft 331 kts 290°
2026-04-20 16:51 23.25526 61.37500 23843 ft 331 kts 290°
2026-04-20 16:51 23.26285 61.35147 23843 ft 331 kts 290°
2026-04-20 16:51 23.27046 61.32781 23842 ft 331 kts 290°
2026-04-20 16:52 23.27808 61.30413 23842 ft 331 kts 290°
2026-04-20 16:52 23.28566 61.28054 23844 ft 331 kts 290°
2026-04-20 16:52 23.29327 61.25685 23843 ft 331 kts 290°
2026-04-20 16:52 23.30089 61.23313 23842 ft 331 kts 290°
2026-04-20 16:53 23.30837 61.20951 23840 ft 331 kts 288°
2026-04-20 16:53 23.31326 61.18550 23840 ft 332 kts 281°
2026-04-20 16:53 23.31681 61.16006 23834 ft 332 kts 278°
2026-04-20 16:53 23.31980 61.13539 23834 ft 332 kts 279°
2026-04-20 16:54 23.32295 61.11044 23834 ft 332 kts 279°
2026-04-20 16:54 23.32607 61.08619 23834 ft 332 kts 279°
2026-04-20 16:54 23.32930 61.06127 23834 ft 332 kts 279°
2026-04-20 16:54 23.33252 61.03643 23834 ft 332 kts 279°
2026-04-20 16:55 23.33575 61.01148 23834 ft 332 kts 279°
2026-04-20 16:55 23.33897 60.98658 23833 ft 332 kts 279°
2026-04-20 16:55 23.34219 60.96163 23834 ft 332 kts 279°
2026-04-20 16:55 23.34540 60.93672 23834 ft 332 kts 279°
2026-04-20 16:56 23.34860 60.91183 23834 ft 332 kts 279°
2026-04-20 16:56 23.35179 60.88695 23833 ft 332 kts 279°
2026-04-20 16:56 23.35497 60.86210 23833 ft 332 kts 279°
2026-04-20 16:56 23.35814 60.83723 23840 ft 332 kts 279°
2026-04-20 16:57 23.36131 60.81235 23853 ft 331 kts 279°
2026-04-20 16:57 23.36446 60.78751 23852 ft 332 kts 279°
2026-04-20 16:57 23.36762 60.76264 23852 ft 332 kts 279°
2026-04-20 16:57 23.37077 60.73774 23853 ft 332 kts 279°
2026-04-20 16:58 23.37391 60.71290 23854 ft 332 kts 278°
2026-04-20 16:58 23.37704 60.68799 23852 ft 332 kts 278°
2026-04-20 16:58 23.38062 60.66319 23843 ft 332 kts 283°
2026-04-20 16:58 23.38640 60.63928 23843 ft 331 kts 288°
2026-04-20 16:59 23.39405 60.61558 23844 ft 331 kts 291°
2026-04-20 16:59 23.40227 60.59218 23845 ft 331 kts 292°
2026-04-20 16:59 23.41064 60.56890 23844 ft 331 kts 292°
2026-04-20 16:59 23.41911 60.54565 23843 ft 330 kts 292°
2026-04-20 17:00 23.43617 60.49910 23843 ft 331 kts 292°
2026-04-20 17:00 23.44471 60.47586 23844 ft 330 kts 292°
2026-04-20 17:00 23.45324 60.45266 23844 ft 330 kts 292°
2026-04-20 17:01 23.46178 60.42939 23843 ft 330 kts 292°
2026-04-20 17:01 23.47030 60.40619 23843 ft 330 kts 292°
2026-04-20 17:01 23.47884 60.38291 23843 ft 330 kts 292°
2026-04-20 17:01 23.48735 60.35970 23842 ft 330 kts 292°
2026-04-20 17:02 23.49584 60.33652 23843 ft 330 kts 292°
2026-04-20 17:02 23.50435 60.31326 23843 ft 330 kts 292°
2026-04-20 17:02 23.51283 60.29009 23844 ft 330 kts 292°
2026-04-20 17:02 23.52135 60.26679 23844 ft 330 kts 292°
2026-04-20 17:03 23.52981 60.24363 23843 ft 330 kts 292°
2026-04-20 17:03 23.53833 60.22028 23843 ft 330 kts 292°
2026-04-20 17:03 23.54681 60.19704 23844 ft 330 kts 292°
2026-04-20 17:03 23.55530 60.17375 23843 ft 330 kts 292°
2026-04-20 17:04 23.56374 60.15059 23843 ft 330 kts 292°
2026-04-20 17:04 23.57209 60.12764 23842 ft 330 kts 292°
2026-04-20 17:04 23.58031 60.10504 23843 ft 330 kts 292°
2026-04-20 17:04 23.58878 60.08173 23838 ft 330 kts 292°
2026-04-20 17:05 23.59723 60.05848 23834 ft 330 kts 291°
2026-04-20 17:05 23.60567 60.03525 23833 ft 330 kts 291°
2026-04-20 17:05 23.61410 60.01198 23834 ft 330 kts 291°
2026-04-20 17:05 23.62252 59.98876 23834 ft 329 kts 291°
2026-04-20 17:06 23.63095 59.96552 23834 ft 329 kts 291°
2026-04-20 17:06 23.63936 59.94227 23834 ft 329 kts 291°
2026-04-20 17:06 23.64494 59.92686 23834 ft 329 kts 291°
2026-04-20 17:06 23.65615 59.89585 23833 ft 329 kts 291°
2026-04-20 17:07 23.66172 59.88042 23834 ft 329 kts 291°
2026-04-20 17:07 23.67012 59.85718 23834 ft 329 kts 291°
2026-04-20 17:07 23.67850 59.83396 23834 ft 329 kts 291°
2026-04-20 17:07 23.68687 59.81076 23834 ft 329 kts 291°
2026-04-20 17:08 23.69525 59.78751 23834 ft 329 kts 291°
2026-04-20 17:08 23.70361 59.76430 23834 ft 329 kts 291°
2026-04-20 17:08 23.71199 59.74103 23834 ft 329 kts 291°
2026-04-20 17:08 23.72039 59.71770 23834 ft 329 kts 291°
2026-04-20 17:09 23.72873 59.69450 23834 ft 329 kts 291°
2026-04-20 17:09 23.73710 59.67121 23833 ft 329 kts 291°
2026-04-20 17:09 23.74545 59.64796 23833 ft 329 kts 291°
2026-04-20 17:09 23.75379 59.62472 23834 ft 329 kts 291°
2026-04-20 17:10 23.76215 59.60143 23834 ft 329 kts 291°
2026-04-20 17:10 23.77048 59.57819 23834 ft 329 kts 291°
2026-04-20 17:10 23.77871 59.55520 23834 ft 329 kts 291°
2026-04-20 17:10 23.78700 59.53205 23834 ft 329 kts 291°
2026-04-20 17:11 23.79534 59.50874 23834 ft 329 kts 291°
2026-04-20 17:11 23.80368 59.48542 23834 ft 329 kts 291°
2026-04-20 17:11 23.81199 59.46216 23826 ft 330 kts 291°
2026-04-20 17:11 23.82033 59.43882 23827 ft 330 kts 291°
2026-04-20 17:12 23.82869 59.41542 23826 ft 330 kts 291°
2026-04-20 17:12 23.83706 59.39198 23824 ft 330 kts 291°
2026-04-20 17:12 23.84538 59.36863 23823 ft 329 kts 291°
2026-04-20 17:12 23.85368 59.34532 23827 ft 330 kts 291°
2026-04-20 17:13 23.86198 59.32201 23823 ft 330 kts 291°
2026-04-20 17:13 23.87042 59.29830 23826 ft 330 kts 291°
2026-04-20 17:13 23.87871 59.27497 23827 ft 330 kts 291°
2026-04-20 17:13 23.88698 59.25172 23825 ft 330 kts 291°
2026-04-20 17:14 23.89529 59.22833 23827 ft 330 kts 291°
2026-04-20 17:14 23.90353 59.20511 23824 ft 330 kts 291°
2026-04-20 17:14 23.91185 59.18167 23827 ft 330 kts 291°
2026-04-20 17:14 23.92015 59.15828 23823 ft 330 kts 291°
2026-04-20 17:15 23.92806 59.13579 23824 ft 330 kts 290°
2026-04-20 17:15 23.93553 59.11230 23825 ft 330 kts 289°
2026-04-20 17:15 23.94298 59.08860 23825 ft 330 kts 289°
2026-04-20 17:15 23.95053 59.06490 23822 ft 330 kts 289°
2026-04-20 17:16 23.95813 59.04121 23825 ft 330 kts 289°
2026-04-20 17:16 23.96573 59.01752 23826 ft 330 kts 289°
2026-04-20 17:16 23.97332 58.99388 23827 ft 330 kts 289°
2026-04-20 17:16 23.98094 58.97019 23822 ft 330 kts 289°
2026-04-20 17:17 23.98854 58.94652 23822 ft 330 kts 289°
2026-04-20 17:17 23.99615 58.92283 23825 ft 330 kts 289°
2026-04-20 17:17 24.00376 58.89909 23825 ft 331 kts 289°
2026-04-20 17:17 24.01139 58.87531 23825 ft 331 kts 289°
2026-04-20 17:18 24.01897 58.85163 23827 ft 330 kts 289°
2026-04-20 17:18 24.02656 58.82792 23822 ft 330 kts 289°
2026-04-20 17:18 24.03414 58.80422 23826 ft 330 kts 289°
2026-04-20 17:18 24.04175 58.78043 23825 ft 330 kts 289°
2026-04-20 17:19 24.04932 58.75676 23822 ft 329 kts 289°
2026-04-20 17:19 24.05691 58.73302 23824 ft 329 kts 289°
2026-04-20 17:19 24.06445 58.70938 23825 ft 329 kts 289°
2026-04-20 17:19 24.07188 58.68606 23823 ft 329 kts 289°
2026-04-20 17:20 24.07953 58.66207 23823 ft 330 kts 289°
2026-04-20 17:20 24.08699 58.63864 23824 ft 330 kts 289°
2026-04-20 17:20 24.09453 58.61495 23824 ft 330 kts 289°
2026-04-20 17:20 24.10207 58.59124 23824 ft 330 kts 289°
2026-04-20 17:21 24.10961 58.56746 23824 ft 330 kts 289°
2026-04-20 17:21 24.11711 58.54361 23823 ft 330 kts 289°
2026-04-20 17:21 24.12461 58.51986 23823 ft 330 kts 289°
2026-04-20 17:21 24.13214 58.49610 23825 ft 330 kts 289°
2026-04-20 17:22 24.13966 58.47237 23825 ft 330 kts 289°
2026-04-20 17:22 24.14719 58.44861 23822 ft 330 kts 289°
2026-04-20 17:22 24.15473 58.42480 23827 ft 330 kts 289°
2026-04-20 17:22 24.16224 58.40113 23825 ft 330 kts 289°
2026-04-20 17:23 24.16975 58.37738 23825 ft 330 kts 289°
2026-04-20 17:23 24.17725 58.35363 23825 ft 330 kts 289°
2026-04-20 17:23 24.18477 58.32983 23823 ft 330 kts 289°
2026-04-20 17:23 24.19228 58.30604 23822 ft 330 kts 289°
2026-04-20 17:24 24.19979 58.28227 23822 ft 331 kts 289°
2026-04-20 17:24 24.20729 58.25848 23827 ft 331 kts 289°
2026-04-20 17:24 24.21480 58.23466 23830 ft 331 kts 289°
2026-04-20 17:24 24.22229 58.21089 23835 ft 331 kts 289°
2026-04-20 17:25 24.22978 58.18708 23834 ft 331 kts 289°
2026-04-20 17:25 24.23729 58.16320 23835 ft 331 kts 289°
2026-04-20 17:25 24.24440 58.14060 23834 ft 331 kts 289°
2026-04-20 17:25 24.25191 58.11668 23834 ft 331 kts 289°
2026-04-20 17:26 24.25933 58.09304 23834 ft 331 kts 289°
2026-04-20 17:26 24.26681 58.06921 23834 ft 331 kts 289°
2026-04-20 17:26 24.27431 58.04529 23834 ft 332 kts 289°
2026-04-20 17:26 24.28181 58.02136 23834 ft 332 kts 289°
2026-04-20 17:27 24.28929 57.99748 23834 ft 332 kts 289°
2026-04-20 17:27 24.29677 57.97357 23832 ft 332 kts 289°
2026-04-20 17:27 24.30424 57.94968 23834 ft 331 kts 289°
2026-04-20 17:27 24.31172 57.92573 23834 ft 331 kts 289°
2026-04-20 17:28 24.31917 57.90187 23834 ft 331 kts 288°
2026-04-20 17:28 24.32664 57.87794 23833 ft 331 kts 288°
2026-04-20 17:28 24.33410 57.85403 23834 ft 331 kts 288°
2026-04-20 17:28 24.34154 57.83016 23834 ft 331 kts 288°
2026-04-20 17:29 24.34898 57.80626 23834 ft 331 kts 288°
2026-04-20 17:29 24.35652 57.78204 23835 ft 331 kts 288°
2026-04-20 17:29 24.36396 57.75813 23834 ft 331 kts 288°
2026-04-20 17:29 24.37140 57.73420 23834 ft 331 kts 288°
2026-04-20 17:30 24.37884 57.71027 23834 ft 331 kts 288°
2026-04-20 17:30 24.38628 57.68630 23840 ft 331 kts 288°
2026-04-20 17:30 24.39367 57.66246 23843 ft 331 kts 288°
2026-04-20 17:30 24.40108 57.63857 23842 ft 330 kts 288°
2026-04-20 17:31 24.40847 57.61474 23842 ft 330 kts 288°
2026-04-20 17:31 24.41584 57.59093 23844 ft 330 kts 288°
2026-04-20 17:31 24.42319 57.56718 23844 ft 330 kts 288°
2026-04-20 17:31 24.43057 57.54332 23844 ft 330 kts 288°
2026-04-20 17:32 24.43795 57.51946 23842 ft 330 kts 288°
2026-04-20 17:32 24.44525 57.49560 23844 ft 330 kts 288°
2026-04-20 17:32 24.45249 57.47170 23843 ft 330 kts 288°
2026-04-20 17:32 24.45979 57.44784 23844 ft 330 kts 288°
2026-04-20 17:33 24.46710 57.42403 23844 ft 330 kts 288°
2026-04-20 17:33 24.47445 57.40016 23844 ft 330 kts 288°
2026-04-20 17:33 24.48171 57.37657 23843 ft 329 kts 288°
2026-04-20 17:33 24.48914 57.35247 23844 ft 329 kts 288°
2026-04-20 17:34 24.49647 57.32865 23844 ft 329 kts 288°
2026-04-20 17:34 24.50379 57.30485 23843 ft 329 kts 288°
2026-04-20 17:34 24.51110 57.28108 23843 ft 329 kts 288°
2026-04-20 17:34 24.51842 57.25728 23841 ft 329 kts 288°
2026-04-20 17:35 24.52575 57.23344 23842 ft 328 kts 288°
2026-04-20 17:35 24.53304 57.20969 23844 ft 328 kts 288°
2026-04-20 17:35 24.54031 57.18595 23842 ft 328 kts 288°
2026-04-20 17:35 24.54711 57.16379 23843 ft 328 kts 288°
2026-04-20 17:36 24.55438 57.14006 23844 ft 328 kts 288°
2026-04-20 17:36 24.56157 57.11657 23844 ft 328 kts 288°
2026-04-20 17:36 24.56892 57.09254 23851 ft 328 kts 288°
2026-04-20 17:36 24.57618 57.06882 23853 ft 327 kts 288°
2026-04-20 17:37 24.58332 57.04545 23853 ft 327 kts 288°
2026-04-20 17:37 24.59057 57.02171 23852 ft 327 kts 288°
2026-04-20 17:37 24.59779 56.99802 23853 ft 327 kts 288°
2026-04-20 17:37 24.60503 56.97428 23853 ft 327 kts 288°
2026-04-20 17:38 24.61225 56.95060 23853 ft 327 kts 288°
2026-04-20 17:38 24.61943 56.92701 23822 ft 319 kts 287°
2026-04-20 17:38 24.62638 56.90419 23161 ft 313 kts 288°
2026-04-20 17:38 24.63314 56.88196 22878 ft 297 kts 288°
2026-04-20 17:39 24.63944 56.86125 22823 ft 275 kts 287°
2026-04-20 17:39 24.64436 56.84128 22848 ft 272 kts 281°
2026-04-20 17:39 24.64772 56.82062 22860 ft 281 kts 281°
2026-04-20 17:39 24.65308 56.79953 22862 ft 289 kts 289°
2026-04-20 17:40 24.66062 56.77973 22584 ft 277 kts 294°
2026-04-20 17:40 24.66886 56.76061 21980 ft 277 kts 295°
2026-04-20 17:40 24.67708 56.74185 21375 ft 276 kts 295°
2026-04-20 17:40 24.68553 56.72266 20783 ft 274 kts 295°
2026-04-20 17:41 24.69380 56.70394 20249 ft 270 kts 295°
2026-04-20 17:41 24.70197 56.68546 19688 ft 267 kts 296°
2026-04-20 17:41 24.71007 56.66718 19147 ft 264 kts 296°
2026-04-20 17:41 24.71807 56.64911 18603 ft 260 kts 296°
2026-04-20 17:42 24.72587 56.63148 18059 ft 258 kts 296°
2026-04-20 17:42 24.73367 56.61387 17523 ft 255 kts 296°
2026-04-20 17:42 24.74138 56.59644 16948 ft 253 kts 296°
2026-04-20 17:42 24.74908 56.57906 16391 ft 251 kts 296°
2026-04-20 17:43 24.75669 56.56187 15808 ft 250 kts 297°
2026-04-20 17:43 24.76428 56.54471 15244 ft 248 kts 296°
2026-04-20 17:43 24.77181 56.52767 14671 ft 247 kts 296°
2026-04-20 17:43 24.77929 56.51071 14118 ft 245 kts 297°
2026-04-20 17:44 24.78669 56.49396 13578 ft 243 kts 297°
2026-04-20 17:44 24.79408 56.47721 13010 ft 241 kts 297°
2026-04-20 17:44 24.80139 56.46065 12455 ft 240 kts 297°
2026-04-20 17:44 24.80868 56.44412 11913 ft 239 kts 297°
2026-04-20 17:45 24.81346 56.43326 11537 ft 238 kts 296°
2026-04-20 17:45 24.82302 56.41156 10800 ft 236 kts 296°
2026-04-20 17:45 24.83019 56.39532 10238 ft 236 kts 296°
2026-04-20 17:45 24.83713 56.37953 10026 ft 229 kts 296°
2026-04-20 17:46 24.84399 56.36395 9992 ft 227 kts 296°
2026-04-20 17:46 24.84875 56.35312 10013 ft 246 kts 296°
2026-04-20 17:46 24.85672 56.33497 10015 ft 272 kts 296°
2026-04-20 17:46 24.86519 56.31567 9998 ft 278 kts 296°
2026-04-20 17:47 24.87338 56.29706 10001 ft 272 kts 296°
2026-04-20 17:47 24.88162 56.27829 9999 ft 272 kts 296°
2026-04-20 17:47 24.88986 56.25954 9998 ft 272 kts 296°
2026-04-20 17:47 24.89823 56.24047 10008 ft 273 kts 296°
2026-04-20 17:48 24.90648 56.22166 9996 ft 272 kts 296°
2026-04-20 17:48 24.91472 56.20285 10000 ft 272 kts 296°
2026-04-20 17:48 24.92298 56.18400 10005 ft 273 kts 296°
2026-04-20 17:48 24.93090 56.16592 10010 ft 272 kts 296°
2026-04-20 17:49 24.93914 56.14710 10000 ft 272 kts 296°
2026-04-20 17:49 24.94726 56.12854 10000 ft 273 kts 296°
2026-04-20 17:49 24.95558 56.10951 10002 ft 272 kts 296°
2026-04-20 17:49 24.96372 56.09092 9997 ft 272 kts 296°
2026-04-20 17:50 24.97291 56.07265 9999 ft 272 kts 303°
2026-04-20 17:50 24.98433 56.05601 9998 ft 273 kts 310°
2026-04-20 17:50 24.99677 56.04022 9999 ft 273 kts 311°
2026-04-20 17:50 25.00937 56.02455 9998 ft 273 kts 311°
2026-04-20 17:51 25.02202 56.00892 10002 ft 273 kts 311°
2026-04-20 17:51 25.03459 55.99327 9997 ft 273 kts 308°
2026-04-20 17:51 25.04423 55.97535 9996 ft 272 kts 293°
2026-04-20 17:51 25.04971 55.95580 9826 ft 260 kts 284°
2026-04-20 17:52 25.05339 55.93627 9052 ft 261 kts 281°
2026-04-20 17:52 25.05681 55.91643 8236 ft 264 kts 281°
2026-04-20 17:52 25.06014 55.89655 7507 ft 263 kts 281°
2026-04-20 17:52 25.06340 55.87677 6813 ft 260 kts 280°
2026-04-20 17:53 25.06656 55.85740 6137 ft 257 kts 281°
2026-04-20 17:53 25.06974 55.83793 5452 ft 254 kts 280°
2026-04-20 17:53 25.07280 55.81905 4756 ft 252 kts 280°
2026-04-20 17:53 25.07586 55.79997 4132 ft 247 kts 279°
2026-04-20 17:54 25.07874 55.78204 3987 ft 232 kts 279°
2026-04-20 17:54 25.08156 55.76444 3978 ft 232 kts 279°
2026-04-20 17:54 25.08437 55.74685 3987 ft 232 kts 279°
2026-04-20 17:54 25.08715 55.72958 3979 ft 219 kts 279°
2026-04-20 17:55 25.08969 55.71391 3970 ft 198 kts 279°
2026-04-20 17:55 25.09210 55.69906 3987 ft 196 kts 279°
2026-04-20 17:55 25.09447 55.68424 4000 ft 196 kts 279°
2026-04-20 17:55 25.09685 55.66940 3986 ft 197 kts 279°
2026-04-20 17:56 25.09917 55.65478 3991 ft 196 kts 279°
2026-04-20 17:56 25.10188 55.64004 3990 ft 197 kts 286°
2026-04-20 17:56 25.10723 55.62623 3989 ft 196 kts 298°
2026-04-20 17:56 25.11426 55.61326 3990 ft 197 kts 301°
2026-04-20 17:57 25.12106 55.60115 3969 ft 172 kts 301°
2026-04-20 17:57 25.12714 55.59035 3974 ft 164 kts 301°
2026-04-20 17:57 25.13312 55.57968 3988 ft 164 kts 301°
2026-04-20 17:57 25.13909 55.56900 3997 ft 164 kts 301°
2026-04-20 17:58 25.14509 55.55831 3984 ft 163 kts 301°
2026-04-20 17:58 25.15108 55.54761 3984 ft 164 kts 301°
2026-04-20 17:58 25.15705 55.53693 3992 ft 163 kts 301°
2026-04-20 17:58 25.16305 55.52629 3969 ft 165 kts 301°
2026-04-20 17:59 25.16934 55.51528 3841 ft 174 kts 301°
2026-04-20 17:59 25.17568 55.50410 3549 ft 167 kts 301°
2026-04-20 17:59 25.18163 55.49356 3142 ft 158 kts 301°
2026-04-20 17:59 25.18741 55.48334 2660 ft 154 kts 301°
2026-04-20 18:00 25.19318 55.47306 2233 ft 163 kts 301°
2026-04-20 18:00 25.19914 55.46218 1802 ft 167 kts 300°
2026-04-20 18:00 25.20498 55.45131 1365 ft 165 kts 301°
2026-04-20 18:00 25.21088 55.44032 1007 ft 162 kts 301°
2026-04-20 18:01 25.21655 55.42981 696 ft 155 kts 301°
2026-04-20 18:01 25.22210 55.41959 428 ft 155 kts 301°
2026-04-20 18:01 25.22758 55.40968 260 ft 149 kts 302°
2026-04-20 18:01 25.23298 55.40007 111 ft 145 kts 302°
2026-04-20 18:02 25.23758 55.39188 30 ft 136 kts 302°
2026-04-20 18:02 25.24100 55.38567 23 ft 50 kts 299°
2026-04-20 18:02 25.24238 55.38318 28 ft 30 kts 301°
2026-04-20 18:02 25.24305 55.38165 26 ft 15 kts 269°
2026-04-20 18:03 25.24263 55.38095 26 ft 10 kts 210°
2026-04-20 18:03 25.24228 55.38070 24 ft 0 kts 213°
2026-04-20 18:05 25.24213 55.38054 20 ft 8 kts 230°
2026-04-20 18:06 25.24214 55.37993 20 ft 11 kts 292°
2026-04-20 18:06 25.24247 55.37931 21 ft 8 kts 302°
2026-04-20 18:06 25.24280 55.37873 21 ft 10 kts 302°
2026-04-20 18:06 25.24322 55.37798 21 ft 13 kts 302°
2026-04-20 18:07 25.24372 55.37708 19 ft 13 kts 301°
2026-04-20 18:07 25.24422 55.37623 21 ft 14 kts 303°
2026-04-20 18:07 25.24474 55.37535 19 ft 14 kts 301°
2026-04-20 18:07 25.24521 55.37443 21 ft 14 kts 299°
2026-04-20 18:08 25.24569 55.37358 19 ft 13 kts 301°
2026-04-20 18:08 25.24618 55.37271 20 ft 14 kts 302°
2026-04-20 18:08 25.24668 55.37181 20 ft 14 kts 301°
2026-04-20 18:08 25.24718 55.37093 20 ft 14 kts 300°
2026-04-20 18:09 25.24761 55.37002 20 ft 10 kts 309°
2026-04-20 18:09 25.24812 55.36930 21 ft 12 kts 304°
2026-04-20 18:09 25.24845 55.36851 20 ft 12 kts 291°
2026-04-20 18:09 25.24867 55.36762 22 ft 13 kts 281°
2026-04-20 18:10 25.24897 55.36661 21 ft 14 kts 296°
2026-04-20 18:10 25.24952 55.36559 21 ft 16 kts 302°
2026-04-20 18:10 25.25013 55.36449 20 ft 17 kts 300°
2026-04-20 18:10 25.25078 55.36333 19 ft 18 kts 301°
2026-04-20 18:11 25.25146 55.36214 20 ft 18 kts 300°
2026-04-20 18:11 25.25214 55.36092 21 ft 19 kts 303°
2026-04-20 18:11 25.25284 55.35968 19 ft 19 kts 302°
2026-04-20 18:11 25.25356 55.35840 22 ft 20 kts 301°
2026-04-20 18:12 25.25430 55.35709 21 ft 20 kts 302°
2026-04-20 18:12 25.25502 55.35579 20 ft 20 kts 301°
2026-04-20 18:12 25.25559 55.35481 21 ft 20 kts 303°
2026-04-20 18:12 25.25631 55.35352 20 ft 20 kts 301°
2026-04-20 18:13 25.25704 55.35221 20 ft 20 kts 301°
2026-04-20 18:13 25.25776 55.35090 21 ft 20 kts 300°
2026-04-20 18:13 25.25866 55.35073 19 ft 14 kts 23°
2026-04-20 18:13 25.25954 55.35130 21 ft 16 kts 30°
2026-04-20 18:14 25.26049 55.35197 21 ft 17 kts 31°
2026-04-20 18:14 25.26151 55.35263 20 ft 17 kts 32°
2026-04-20 18:14 25.26185 55.35285 21 ft 3 kts 31°
2026-04-20 18:14 25.26217 55.35306 23 ft 9 kts 31°
2026-04-20 18:15 25.26281 55.35347 25 ft 8 kts 31°
2026-04-20 18:15 25.26314 55.35369 25 ft 6 kts 31°
2026-04-20 18:15 25.26372 55.35410 21 ft 13 kts 34°
2026-04-20 18:15 25.26424 55.35445 23 ft 6 kts 31°
2026-04-20 18:16 25.26462 55.35471 20 ft 8 kts 31°
2026-04-20 18:16 25.26507 55.35493 22 ft 6 kts
2026-04-20 18:16 25.26546 55.35468 19 ft 7 kts 306°
2026-04-20 18:16 25.26569 55.35424 19 ft 7 kts 300°
2026-04-20 18:17 25.26599 55.35368 21 ft 9 kts 300°
2026-04-20 18:17 25.26636 55.35302 21 ft 10 kts 303°
2026-04-20 18:17 25.26672 55.35240 20 ft 10 kts 303°
2026-04-20 18:17 25.26702 55.35187 20 ft 7 kts 302°
2026-04-20 18:18 25.26728 55.35140 21 ft 7 kts 301°
2026-04-20 18:18 25.26746 55.35108 20 ft 4 kts 301°
2026-04-20 18:18 25.26762 55.35111 20 ft 5 kts 26°
2026-04-20 18:18 25.26789 55.35128 21 ft 3 kts 31°
2026-04-20 18:19 25.26804 55.35138 20 ft 3 kts 31°
2026-04-20 18:19 25.26823 55.35151 21 ft 2 kts 30°
2026-04-20 18:19 25.26832 55.35157 20 ft 1 kts 30°
2026-04-20 18:19 25.26833 55.35157 19 ft 0 kts 30°